Location: Gebenbach
(49.5378°N, 11.8735°E)
Time: 02:41:43
(UTC+00:00)

Cosmos 220 Rocket - Pass Details

Date: 29 October 2020
Orbit: 574 x 617 km, 74.0° (Epoch: 24 November)

Event Time Altitude Azimuth Distance (km) Brightness Sun altitude
Rises 17:46:02 0° 201° (SSW) 2,837 7.7 -18.5°
Reaches altitude 10° 17:48:14 10° 201° (SSW) 1,946 6.9 -18.8°
Maximum altitude 17:52:36 88° 110° (ESE) 617 3.9 -19.6°
Enters shadow 17:55:49 18° 24° (NNE) 1,504 5.8 -20.1°
